This is the latest recevied weather packets stored in our database for station/object MM1PTT-13. If no packets are shown the sender has not sent any weather packets the latest 10 day(s).
| Time | Temp. | Humidity | Pressure | Rain* | Wind** | Luminosity | Snow |
|---|---|---|---|---|---|---|---|
| 1777631142 | 13.33° C | 67% | 990.2 hPa | 0 mm | - | 297 W/m² | - |
| 1777630845 | 13.33° C | 68% | 990.2 hPa | 0 mm | - | 308 W/m² | - |
| 1777630543 | 13.33° C | 68% | 990.2 hPa | 0 mm | - | 328 W/m² | - |
| 1777630242 | 13.33° C | 68% | 990.2 hPa | 0 mm | - | 313 W/m² | - |
| 1777629942 | 12.78° C | 69% | 990.2 hPa | 0 mm | - | 303 W/m² | - |
| 1777629643 | 13.33° C | 68% | 990.2 hPa | 0 mm | - | 350 W/m² | - |
| 1777629042 | 12.78° C | 69% | 990.2 hPa | 0 mm | - | 352 W/m² | - |
| 1777628442 | 11.67° C | 72% | 990.2 hPa | 0 mm | - | 327 W/m² | - |
| 1777627842 | 11.67° C | 75% | 990.2 hPa | 0 mm | - | 228 W/m² | - |
| 1777627543 | 11.11° C | 75% | 990.2 hPa | 0 mm | - | 219 W/m² | - |
| 1777627243 | 11.11° C | 76% | 990.5 hPa | 0 mm | - | 154 W/m² | - |
| 1777626343 | 11.11° C | 75% | 990.2 hPa | 0 mm | - | 199 W/m² | - |
| 1777626042 | 11.11° C | 76% | 990.2 hPa | 0 mm | - | 281 W/m² | - |
| 1777625743 | 10.56° C | 78% | 990.5 hPa | 0 mm | - | 252 W/m² | - |
| 1777625143 | 10° C | 80% | 990.5 hPa | 0 mm | - | 217 W/m² | - |
| 1777624842 | 10° C | 80% | 990.2 hPa | 0 mm | - | 178 W/m² | - |
| 1777624543 | 10° C | 79% | 990.2 hPa | 0 mm | - | 138 W/m² | - |
| 1777624243 | 10° C | 78% | 990.5 hPa | 0 mm | - | 120 W/m² | - |
| 1777623942 | 9.44° C | 81% | 990.5 hPa | 0 mm | - | 104 W/m² | - |
| 1777623643 | 10° C | 81% | 990.5 hPa | 0 mm | - | 127 W/m² | - |
| 1777623343 | 10° C | 77% | 990.5 hPa | 0 mm | - | 155 W/m² | - |
| 1777623042 | 10° C | 77% | 990.5 hPa | 0 mm | - | 154 W/m² | - |
| 1777622742 | 10° C | 78% | 990.5 hPa | 0 mm | - | 169 W/m² | - |
| 1777622443 | 10° C | 79% | 990.5 hPa | 0 mm | - | 217 W/m² | - |
| 1777622143 | 9.44° C | 78% | 990.5 hPa | 0 mm | - | 215 W/m² | - |
* Rain latest hour (hover to see other rain measurements)
** Current wind speed in m/s (hover to see current wind gust speed)